Погода в Алтыновке

Украина / Сумская область     51°27′13″N   33°11′24″E
темп.,
°C
ветер,
м/с
пор.,
м/с
влажн.,
%
обл.,
%
осадки,
мм/ч
давл.,
гПа
погр.,
м
13 апреля, вт
вт1300:00+12юв3377100 0.0 102050
03:00+10ююв348881 0.0 102044
06:00+10юв3789100 0.0 1021179
09:00+11юв3787100 0.0 1021345
12:00+12ююв4682100 0.0 1021507
15:00+12юв358698 0.0 1021472
18:00+12юв2585100 0.0 1020209
21:00+11ююв3486100 0.0 101985
14 апреля, ср
ср1400:00+10ююв3487100 0.1 1019108
03:00+10ююв3486100 0.1 1018105
06:00+9юв3588100 0.0 1018110
09:00+10юв258799 0.0 1017242
12:00+10юв4585100 0.1 1017299
15:00+10ююв3691100 0.8 1017298
18:00+11ююв237855 0.1 1016334
21:00+9юв228690 0.1 101622
15 апреля, чт
чт1500:00+9ююв228598 0.0 101628
03:00+7юв228736 0.0 101622
06:00+8вюв338898 0.0 101556
09:00+12вюв467394 0.0 1015406
12:00+15юв4656100 0.1 10141262
15:00+15ююв5753100 0.3 10131579
18:00+14вюв2360100 0.0 101294
21:00+10ююз468099 0.2 1013180
16 апреля, пт
пт1600:00+10зюз018983 0.3 101321
03:00+9вюв2391100 0.3 1013111
06:00+9в369188 0.1 1013187
09:00+10ю4579100 0.6 1014507
12:00+12ю455864 0.0 10151354
15:00+14ююв474433 0.0 10151983
18:00+13ююз3447100 0.0 10151388
21:00+10сз3663100 0.0 1017176
17 апреля, сб
сб1700:00+8ссз3870100 0.0 1017177
03:00+8с3780100 0.0 1016146
06:00+9с2597100 1.9 1016151
09:00+11всв5990100 4.0 1016727
12:00+11вюв6880100 0.4 1018804
15:00+9ююв3590100 3.0 1020288
18:00+11в4680100 0.9 1022768
21:00+9всв3696100 3.9 1024225